Location: San Antonio
(29.4240°N, 98.4930°W)
Time: 07:39:44
(UTC-05:00)

Vanguard 3 - All Passes

Search period start: 19 July 2024 00:00
Search period end: 29 July 2024 00:00
Orbit: 508 x 3230 km, 33.4° (Epoch: 18 July)

Date Brightness Start Highest point End Pass type
(mag) Time Alt. Az. Time Alt. Az. Time Alt. Az.
19 Jul - 01:35:41 10° WSW 01:48:31 78° SSE 02:08:02 10° ENE visible
19 Jul - 03:48:44 10° W 04:05:29 79° N 04:25:27 10° E visible
19 Jul - 06:04:07 10° WNW 06:23:50 86° NNE 06:41:12 10° ESE visible
19 Jul - 08:21:03 10° WNW 08:40:06 59° SW 08:53:36 10° SE daylight
19 Jul - 10:42:05 10° W 10:52:37 20° SW 11:00:41 10° S daylight
19 Jul - 22:12:11 10° SSE 22:17:12 15° SE 22:23:32 10° E visible
20 Jul - 00:17:53 10° SW 00:28:21 56° SE 00:45:25 10° ENE visible
20 Jul - 02:29:09 10° WSW 02:43:22 86° NNW 03:03:31 10° ENE visible
20 Jul - 04:43:17 10° W 05:01:20 79° N 05:20:37 10° E visible
20 Jul - 06:59:07 10° WNW 07:19:03 78° SSW 07:35:06 10° ESE daylight
20 Jul - 09:17:11 10° WNW 09:33:34 38° SW 09:45:22 10° SSE daylight
20 Jul - 23:01:17 10° SSW 23:09:25 33° SE 23:22:08 10° ENE visible
21 Jul - 01:10:31 10° WSW 01:22:14 80° SSE 01:41:07 10° ENE visible
21 Jul - 03:23:11 10° W 03:38:51 78° N 03:59:01 10° E visible
21 Jul - 05:37:58 10° WNW 05:57:02 88° NNE 06:15:21 10° ESE visible
21 Jul - 07:54:21 10° WNW 08:13:27 58° SW 08:28:03 10° SE daylight
21 Jul - 10:15:24 10° W 10:26:24 20° SW 10:35:06 10° S daylight
21 Jul - 21:47:04 10° SSE 21:51:27 15° SE 21:56:59 10° E visible
21 Jul - 23:52:49 10° SW 00:02:17 58° SE 00:18:24 10° ENE visible
22 Jul - 02:03:53 10° WSW 02:16:57 84° NNW 02:36:44 10° ENE visible
22 Jul - 04:17:30 10° W 04:34:35 80° N 04:54:24 10° E visible
22 Jul - 06:32:42 10° WNW 06:52:13 76° SSW 07:09:19 10° SE daylight
22 Jul - 08:50:25 10° WNW 09:07:03 37° SW 09:19:45 10° SSE daylight
22 Jul - 22:36:15 10° SSW 22:43:35 33° SE 22:55:16 10° ENE visible
23 Jul - 00:45:25 10° WSW 00:56:03 82° SSE 01:14:05 10° ENE visible
23 Jul - 02:57:45 10° W 03:12:16 78° N 03:32:25 10° E visible
23 Jul - 05:11:55 10° WNW 05:30:10 89° NNE 05:49:16 10° ESE visible
23 Jul - 07:27:46 10° WNW 07:46:40 56° SW 08:02:16 10° SE daylight
23 Jul - 09:48:47 10° W 10:00:03 20° SW 10:09:17 10° S daylight
23 Jul - 21:22:01 10° SSE 21:25:47 14° SE 21:30:29 10° E visible
23 Jul - 23:27:49 10° SW 23:36:21 59° SSE 23:51:22 10° ENE visible
24 Jul - 01:38:43 10° W 01:50:39 82° N 02:09:48 10° ENE visible
24 Jul - 03:51:51 10° W 04:07:49 80° N 04:27:57 10° E visible
24 Jul - 06:06:26 10° WNW 06:25:17 74° SSW 06:43:19 10° SE visible
24 Jul - 08:23:45 10° W 08:40:22 36° SW 08:53:54 10° SSE daylight
24 Jul - 22:11:16 10° SSW 22:17:51 33° SE 22:28:27 10° E visible
25 Jul - 00:20:25 10° WSW 00:30:01 85° SSE 00:47:00 10° ENE visible
25 Jul - 02:32:25 10° W 02:45:46 77° N 03:05:38 10° E visible
25 Jul - 04:46:01 10° WNW 05:03:16 89° SSW 05:22:58 10° ESE visible
25 Jul - 07:01:19 10° WNW 07:19:45 54° SW 07:36:16 10° SE daylight
25 Jul - 09:22:17 10° W 09:33:33 19° SW 09:43:13 10° S daylight
25 Jul - 20:57:01 10° SSE 21:00:12 13° SE 21:04:05 10° ESE visible
25 Jul - 23:02:53 10° SW 23:10:33 61° SSE 23:24:20 10° ENE visible
26 Jul - 01:13:37 10° W 01:24:28 80° N 01:42:44 10° ENE visible
26 Jul - 03:26:18 10° WNW 03:41:08 81° N 04:01:18 10° E visible
26 Jul - 05:40:18 10° WNW 05:58:17 72° SSW 06:17:03 10° SE visible
26 Jul - 07:57:14 10° W 08:13:34 34° SW 08:27:48 10° SSE daylight
26 Jul - 21:46:19 10° SSW 21:52:12 33° SE 22:01:44 10° E visible
26 Jul - 23:55:27 10° WSW 00:04:07 87° SSE 00:19:52 10° ENE visible
27 Jul - 02:07:11 10° W 02:19:24 76° N 02:38:39 10° E visible
27 Jul - 04:20:14 10° WNW 04:36:22 87° SSW 04:56:24 10° ESE visible
27 Jul - 06:35:01 10° WNW 06:52:46 52° SW 07:09:59 10° SE daylight
27 Jul - 08:55:56 10° W 09:06:58 18° SW 09:16:51 10° SSW daylight
27 Jul - 20:32:03 10° SSE 20:34:40 13° SE 20:37:47 10° ESE daylight
27 Jul - 22:37:59 10° SW 22:44:51 62° SSE 22:57:23 10° ENE visible
28 Jul - 00:48:36 10° W 00:58:24 78° N 01:15:36 10° E visible
28 Jul - 03:00:51 10° WNW 03:14:30 82° NNE 03:34:28 10° E visible
28 Jul - 05:14:18 10° WNW 05:31:17 69° SSW 05:50:33 10° SE visible
28 Jul - 07:30:52 10° W 07:46:42 33° SW 08:01:26 10° SSE daylight
28 Jul - 21:21:23 10° SSW 21:26:39 33° SE 21:35:08 10° E visible
28 Jul - 23:30:33 10° WSW 23:38:21 90° NNW 23:52:46 10° ENE visible
